Simultaneous Nadir Overpasses (SNOs) Predictions

Prediction of SNOs between AQUA and GOES-15 Satellite Orbit:

Table of predicted SNOs for the next 14.0 days since TLE Epoch: 10/23/2015
Index Date Time (AQUA) AQUA Lat,Lon GOES-15 Lat,Lon Distance(km) Time Diff (sec)
1 10/24/2015 10:31:51 0.02,-134.10 0.15,-134.74 72.33 80
2 10/26/2015 10:19:41 -0.62,-131.16 0.15,-134.82 417.23 80
3 10/26/2015 22:41:06 -0.45,-136.35 -0.13,-134.83 173.13 80
4 10/28/2015 22:28:55 0.16,-133.40 -0.13,-134.91 171.25 80
5 10/29/2015 10:50:10 0.91,-138.56 0.11,-134.95 411.63 80
6 10/31/2015 10:38:01 0.21,-135.62 0.12,-135.02 67.94 80
7 11/02/2015 10:25:49 -0.38,-132.66 0.12,-135.08 275.60 80
8 11/02/2015 22:47:13 -0.67,-137.86 -0.09,-135.08 315.84 80
9 11/04/2015 22:35:01 -0.06,-134.90 -0.09,-135.14 27.54 80




NCC Satellite Simultaneous Nadir Overpasses (SNOs) Prediction Service
